Wind_Speed
58 59 61 62 63 64 65 64 64 62 61 58 56 55 55 54 54 54 54 53 53 54 53 52 51 50 49 49 47 46 45 45 44 44 44 44 43 43 44 45 44 43 42 41 43 44 44 44 44 43 44 44 44 44 44 43 43 43 42 42 43 44 45 47 48 49 50 50 50 51 50 50 49 48 48 48 48 48 49 48 48 47 47 47 47 46 45
58 59 61 63 63 64 65 65 64 63 62 60 58 57 56 55 54 54 53 52 53 54 53 52 51 50 48 48 47 46 45 45 45 44 45 45 45 45 46 46 46 45 44 44 44 45 46 46 45 45 46 46 45 45 44 44 44 44 43 44 45 46 48 49 50 50 51 51 52 52 51 50 50 49 49 49 50 50 50 50 50 49 49 48 47 47 46
57 59 61 63 63 64 65 65 64 63 62 61 59 58 57 55 54 53 53 52 52 53 53 53 51 50 49 48 48 48 47 47 47 46 46 46 46 47 48 48 47 46 46 45 45 45 46 46 46 48 49 49 48 46 45 45 45 45 45 46 47 49 50 51 52 52 52 52 52 52 51 51 50 50 50 50 51 51 52 52 52 52 51 50 49 48 48
56 59 61 63 63 64 65 65 65 64 62 61 59 57 55 54 54 53 53 53 53 53 54 54 53 52 51 51 50 50 50 50 49 48 48 47 47 47 49 49 49 49 48 47 47 46 46 46 47 50 53 52 49 48 47 47 47 47 48 49 50 52 53 53 54 53 53 53 53 53 52 51 51 51 51 51 52 53 53 54 55 55 54 53 51 49 49
55 57 60 63 63 63 64 65 64 63 61 59 58 57 55 54 54 54 54 55 55 55 55 55 55 55 54 54 54 53 53 52 51 50 49 48 47 49 50 51 51 51 51 51 50 49 48 47 49 53 56 54 50 49 49 50 51 52 52 53 53 54 55 55 55 55 55 54 55 54 53 52 52 52 52 52 53 54 55 56 56 56 55 54 52 51 49
53 56 60 61 61 61 62 62 62 61 60 58 57 56 55 54 54 54 54 55 55 55 55 56 56 56 57 57 56 55 54 53 52 50 49 49 50 51 52 53 53 53 53 53 52 51 50 51 53 57 59 57 54 52 53 54 55 55 55 55 56 57 57 57 57 56 56 56 56 55 54 53 53 52 53 53 54 55 56 56 56 55 54 53 53 52 51
53 55 58 59 59 60 60 60 60 60 58 57 56 56 54 53 52 53 53 53 53 53 54 54 56 57 57 56 56 55 54 53 52 51 51 51 52 53 54 55 55 55 54 54 53 52 52 54 56 59 59 58 57 56 56 57 58 58 58 58 58 58 59 58 58 57 57 56 56 55 54 53 53 53 53 54 54 55 56 56 55 54 53 52 52 52 52
51 53 55 56 57 59 59 59 58 58 57 56 55 54 52 51 51 51 51 52 52 52 52 52 54 55 55 55 56 55 54 54 53 53 53 53 54 56 57 57 56 56 55 54 54 54 54 55 57 58 59 59 59 58 59 60 60 60 59 59 60 60 59 59 59 58 57 57 56 56 54 53 53 53 54 54 55 56 56 55 55 53 52 51 51 51 51
49 51 54 56 57 58 57 57 56 56 56 55 54 53 52 50 50 50 51 52 52 51 51 51 51 52 53 53 54 54 54 55 55 55 55 56 57 59 60 59 57 56 56 55 55 55 56 57 58 58 59 60 61 61 61 62 62 61 60 60 60 60 59 59 59 58 57 57 56 55 54 53 54 54 54 55 55 56 56 55 55 54 54 53 53 52 52
49 51 53 54 54 54 54 55 56 55 55 55 54 53 52 50 50 50 51 52 51 51 51 50 50 50 50 51 52 53 54 55 56 56 57 58 60 61 60 59 57 57 57 57 57 58 59 60 60 60 61 63 63 63 63 63 62 62 61 61 60 59 59 59 59 58 57 56 55 54 53 53 53 53 54 55 56 56 56 56 57 57 57 56 55 54 54
48 49 49 49 50 52 53 54 54 55 55 54 53 52 50 49 49 50 50 51 51 51 51 50 50 49 49 50 51 51 52 53 54 55 56 57 58 58 58 58 57 57 57 58 58 60 60 61 61 61 63 65 66 65 65 64 64 63 62 61 60 60 59 59 58 58 56 55 54 53 53 53 53 54 55 56 56 56 57 58 58 58 57 56 56 55 55
45 47 48 48 49 51 53 53 53 54 55 54 53 51 49 49 50 50 50 51 51 51 51 51 50 49 50 51 51 50 50 51 51 51 52 54 55 56 56 55 55 55 54 55 56 57 58 60 61 62 64 66 67 66 65 64 63 62 61 60 60 58 57 57 56 55 54 52 52 52 52 53 54 55 57 57 58 57 57 57 57 57 57 57 57 56 56
45 46 48 49 51 52 53 54 55 56 56 54 51 50 50 50 51 51 51 51 52 52 52 51 51 51 51 51 50 49 48 48 48 50 52 53 53 53 52 52 53 52 51 51 51 51 53 57 59 60 63 65 65 63 61 60 59 58 57 57 56 55 54 54 53 52 51 51 51 52 53 54 55 57 58 58 58 58 57 57 57 58 58 58 57 56 55
47 48 50 52 53 54 55 56 56 56 54 52 50 50 51 52 51 51 51 51 52 52 51 51 51 51 51 50 49 47 47 48 49 50 51 52 52 51 51 52 52 51 49 49 48 49 53 56 58 60 61 63 62 60 58 58 57 56 55 54 53 53 53 52 52 51 51 51 52 53 54 56 57 58 59 59 58 57 56 57 57 58 58 57 56 55 54
48 49 50 51 52 53 55 55 54 52 51 50 50 50 51 51 51 50 50 50 50 50 50 50 50 50 50 48 47 47 48 49 50 50 50 51 50 50 49 49 48 46 45 44 46 49 52 53 55 57 59 60 59 58 58 58 57 55 54 54 53 53 52 52 52 52 52 52 53 54 56 57 58 58 58 57 57 56 56 56 57 58 57 57 56 55 54
46 46 47 49 51 54 55 54 53 52 51 50 50 50 50 50 49 48 48 48 49 49 49 50 50 49 48 47 47 47 48 49 49 48 48 47 46 45 44 43 42 41 41 42 46 49 50 50 53 56 57 58 58 58 59 59 57 55 55 54 53 52 52 52 52 52 52 53 55 56 57 57 58 57 57 56 56 56 57 57 58 58 57 56 55 54 54
46 47 48 50 52 54 53 52 51 51 50 50 50 50 49 49 48 47 47 47 48 48 49 49 48 47 46 46 47 48 48 47 46 45 44 43 42 42 42 41 41 42 42 43 47 49 49 49 52 55 56 57 57 58 60 60 57 55 54 53 52 52 51 52 52 52 53 54 55 56 57 57 56 56 56 56 57 57 57 58 58 58 56 55 55 54 54
45 47 49 50 51 51 51 50 49 48 48 48 48 48 48 47 47 47 47 47 47 47 47 47 46 45 45 45 46 46 46 45 44 43 43 43 43 43 43 43 43 43 43 43 45 46 47 48 50 52 55 57 57 57 58 57 55 53 52 52 51 51 51 52 52 53 54 54 55 56 56 56 56 55 56 56 57 57 58 58 59 58 56 55 55 55 55
43 45 47 49 49 49 49 48 48 47 47 47 47 47 47 47 47 46 46 47 47 46 46 46 45 44 44 44 44 44 44 44 43 43 44 45 45 45 44 44 44 44 44 43 43 44 45 47 48 50 53 55 55 55 55 54 53 52 51 51 51 51 52 53 53 53 54 54 54 55 55 55 55 56 56 57 57 58 58 59 58 57 56 56 56 57 58
41 43 45 46 46 46 46 46 46 47 47 47 47 47 47 46 46 46 46 46 46 46 45 45 43 43 43 43 43 44 45 44 44 44 45 46 46 46 46 46 45 45 44 44 43 44 45 46 47 48 50 52 52 53 53 52 52 51 51 51 51 52 52 53 53 53 53 54 54 55 54 55 55 56 57 57 58 58 59 59 58 57 57 57 58 59 60
41 43 44 44 43 43 44 44 45 46 46 46 46 46 46 46 46 46 46 46 46 45 44 43 43 43 43 43 44 45 45 45 45 46 47 47 47 47 47 47 46 45 44 43 43 44 45 45 46 47 49 50 51 52 52 52 52 51 51 51 52 52 52 52 53 54 54 54 54 54 54 55 55 56 57 57 58 59 59 59 58 58 58 59 59 60 61
40 41 41 40 40 41 42 42 43 44 44 45 45 45 45 45 45 45 45 45 45 45 44 44 44 44 44 45 46 46 45 46 47 47 48 49 49 49 48 48 46 45 43 42 43 44 44 45 46 48 49 50 50 51 51 52 52 51 51 52 52 52 53 54 54 54 53 53 52 53 53 55 56 56 57 58 59 60 60 59 59 59 59 59 60 60 61
39 40 40 40 41 41 42 42 43 44 45 45 45 45 45 45 45 45 45 45 45 46 46 45 45 45 45 46 47 48 48 48 48 49 49 49 49 50 49 48 46 44 42 42 42 42 41 41 42 44 46 47 48 49 49 50 50 51 51 52 53 53 54 53 52 51 50 50 51 52 53 55 56 57 58 59 60 60 59 59 59 59 59 60 60 61 62
40 41 41 42 43 43 44 45 46 46 47 46 46 46 46 46 45 45 46 47 47 47 47 46 46 46 46 46 47 48 48 47 48 50 50 50 50 50 49 48 46 44 42 41 40 39 38 37 36 37 39 41 44 46 47 49 50 51 51 52 52 51 51 50 49 48 48 49 51 52 53 55 57 58 60 60 60 59 59 58 58 59 60 61 62 62 63
41 42 43 44 45 46 47 47 48 48 48 47 47 48 47 47 46 47 48 49 49 49 49 48 47 47 48 48 49 50 50 48 47 47 47 48 49 48 47 46 45 44 42 40 39 38 37 36 35 35 36 38 41 43 45 47 48 48 47 47 47 47 47 47 46 47 48 49 51 53 55 57 59 60 60 60 59 58 58 58 59 60 61 62 63 64 64
43 44 45 46 46 47 47 48 48 48 48 48 49 49 49 49 49 50 52 52 52 51 50 50 49 50 50 51 51 53 53 51 48 46 44 45 46 47 46 45 44 43 41 40 38 38 37 37 37 37 38 39 40 41 42 43 43 43 43 43 44 44 45 46 46 47 49 50 52 54 57 59 60 60 59 58 57 57 58 58 59 61 62 63 64 65 65
43 44 45 45 46 47 47 48 48 48 49 49 49 50 50 50 51 52 53 54 53 53 52 50 50 51 51 51 52 53 53 51 49 47 44 44 45 45 45 45 44 43 41 39 37 37 38 38 39 39 40 40 40 41 41 41 41 41 41 42 43 44 45 46 47 49 51 52 54 56 58 58 58 57 56 57 57 58 59 59 60 61 63 64 64 65 64
40 41 42 42 43 44 44 44 45 46 47 47 48 47 48 48 49 50 52 52 52 53 52 51 49 49 50 49 50 50 49 48 48 47 46 45 44 44 44 46 46 43 40 38 37 38 39 41 41 41 41 41 41 41 40 40 41 41 41 42 43 45 47 48 50 51 53 54 56 56 56 56 55 55 56 57 58 59 60 61 62 62 63 64 65 64 63
34 35 36 36 36 36 37 37 38 39 41 41 42 41 41 42 43 44 45 46 47 48 48 47 46 47 47 47 47 47 46 46 46 46 46 45 44 44 46 48 46 42 39 38 38 40 41 42 41 41 41 40 40 40 40 40 41 41 42 44 45 47 48 50 52 53 55 56 56 56 56 55 55 55 56 57 58 59 61 62 63 64 65 65 64 62 60
28 29 29 30 30 30 31 31 32 33 34 35 35 35 35 36 38 39 41 42 42 43 43 43 43 43 43 43 45 45 45 44 44 44 44 44 43 44 47 49 45 40 38 38 38 40 41 41 41 40 40 39 39 39 40 41 41 43 44 45 47 49 51 52 54 55 56 57 56 56 55 55 56 56 56 57 58 59 61 63 64 65 65 64 62 60 58
25 25 26 26 26 26 26 27 27 28 28 29 30 31 32 33 35 36 38 38 38 39 38 38 39 39 39 41 43 44 44 44 43 43 43 44 43 44 47 47 43 39 38 38 39 40 41 40 40 40 39 39 39 40 41 42 43 45 47 48 50 52 53 55 56 57 57 57 56 55 55 56 56 56 57 58 59 60 62 63 64 65 64 62 60 58 56
24 25 25 25 24 24 24 23 23 23 23 24 26 27 29 31 33 34 34 35 35 34 34 34 35 36 37 39 40 40 41 42 42 42 42 43 43 43 43 42 40 38 38 38 38 39 39 38 38 38 38 39 41 42 43 45 47 48 50 52 53 55 56 58 58 58 57 55 54 54 55 56 57 57 58 59 60 61 63 64 64 63 62 61 59 57 54
25 26 26 25 25 24 24 24 23 23 23 23 24 25 27 29 31 32 34 34 35 34 34 34 34 35 36 36 37 38 40 40 40 41 42 43 43 42 41 40 38 38 38 38 38 39 39 39 39 40 41 43 44 45 47 48 50 52 53 55 56 58 59 59 58 56 55 54 54 54 55 56 57 58 59 60 61 62 63 63 63 62 61 59 56 54 51
27 27 28 28 28 28 28 28 27 27 27 27 27 27 28 29 30 31 33 35 36 37 37 37 37 37 37 37 38 39 40 40 40 41 42 42 42 42 41 40 40 40 40 40 40 41 41 42 42 43 45 46 47 49 50 52 53 55 56 58 59 60 59 57 55 54 53 54 54 55 56 57 58 59 60 61 62 63 63 62 62 61 59 56 54 51 48
29 29 29 30 30 31 31 31 31 32 32 32 31 31 31 31 32 33 34 35 36 37 38 39 40 40 40 39 40 41 41 41 41 42 41 41 41 41 41 42 42 43 43 43 43 44 44 45 46 47 49 50 51 53 54 55 57 58 59 59 59 58 56 54 53 53 53 54 55 55 56 58 59 60 61 62 62 62 62 61 60 59 56 54 51 48 45
33 33 33 33 33 33 33 33 34 34 35 35 35 35 35 35 35 35 36 36 37 38 39 40 41 41 41 41 42 42 42 41 41 41 41 40 41 41 43 43 44 44 45 46 46 47 47 48 49 51 52 53 55 57 58 59 59 59 58 57 56 54 53 53 53 53 54 54 55 57 58 59 60 61 62 62 62 61 61 60 58 56 53 51 48 45 42
37 38 38 38 38 37 37 37 37 37 38 38 38 38 38 38 38 38 39 39 39 40 41 41 41 41 41 41 41 41 41 40 40 40 41 41 42 43 44 45 45 46 47 48 49 49 50 52 53 55 56 57 58 59 59 58 57 56 55 54 53 52 52 53 53 54 55 56 57 58 59 60 61 62 62 61 61 61 60 58 55 53 50 47 44 41 39
41 42 42 43 43 43 42 42 42 42 43 43 42 41 41 41 41 41 42 42 42 43 43 43 43 43 42 42 42 42 42 42 42 43 43 44 45 46 47 47 47 49 50 51 52 53 55 56 57 58 58 58 57 56 56 55 53 53 52 52 52 52 52 53 54 55 56 57 58 59 60 61 61 61 61 61 61 59 57 54 52 49 46 43 41 39 38
42 43 44 45 46 47 47 47 47 47 48 48 47 46 46 45 45 45 45 45 45 45 45 45 45 44 44 44 44 44 45 45 46 47 47 48 49 50 49 50 51 53 54 54 55 56 56 56 56 55 55 54 53 53 52 52 52 52 52 52 52 53 53 54 55 57 57 58 59 60 61 61 61 61 61 60 59 56 53 51 48 46 43 41 39 38 38
42 42 43 45 46 47 49 50 50 51 51 52 51 51 51 51 51 51 50 50 49 49 48 48 47 47 48 48 48 49 49 50 50 51 52 52 53 53 53 53 54 55 55 54 54 53 53 53 52 52 51 51 52 52 52 52 52 52 52 53 53 54 55 56 57 58 58 59 60 60 60 60 60 60 59 58 56 53 51 48 45 43 41 40 40 39 39
38 40 41 42 44 45 47 49 50 52 53 54 54 55 55 55 54 54 55 55 54 54 53 53 53 53 53 53 53 54 54 54 54 55 55 55 55 55 55 55 55 54 54 53 52 52 51 51 51 51 51 52 52 52 52 52 53 53 54 54 55 56 57 58 58 59 59 60 60 59 59 60 59 58 56 54 52 50 47 44 42 41 41 41 40 40 40
34 36 37 39 40 42 43 45 47 49 51 53 54 55 56 56 57 57 58 58 57 57 58 58 58 58 58 58 58 58 58 58 58 58 58 58 57 57 56 55 55 54 53 53 53 52 52 52 53 53 53 53 54 54 54 54 55 55 56 57 57 58 59 59 59 60 60 59 59 59 59 58 57 55 52 50 48 46 44 42 41 41 41 41 41 41 41
29 31 34 36 37 39 40 41 43 45 47 49 51 52 54 56 57 58 59 60 59 60 60 61 61 61 61 61 61 60 60 60 60 60 60 60 59 58 57 56 56 55 55 55 54 54 54 54 54 54 55 55 55 55 56 56 57 57 58 58 59 59 59 59 59 59 59 59 59 58 57 55 53 51 48 46 44 42 42 42 41 41 41 42 42 42 41
24 26 28 31 33 35 37 39 40 42 44 45 47 48 50 52 54 56 58 59 60 61 62 62 63 63 63 63 63 63 63 63 62 62 61 61 60 59 59 58 58 57 57 57 56 56 55 56 56 56 57 57 57 57 58 58 58 59 59 59 59 59 59 59 59 59 59 58 57 55 53 51 49 46 44 42 41 41 42 42 42 42 42 42 41 41 41
21 22 23 25 27 29 31 34 36 38 40 42 44 45 46 48 49 51 53 54 56 58 60 61 62 63 64 64 64 64 63 63 63 63 62 62 61 61 60 60 60 59 59 58 58 58 58 58 58 59 59 59 59 59 59 59 59 59 59 59 59 59 59 59 58 58 57 55 53 51 49 47 44 42 41 41 41 42 42 42 42 42 42 41 41 40 40
17 18 19 19 20 22 24 26 29 31 34 36 38 40 41 43 44 46 48 49 51 53 54 56 57 59 61 62 63 63 63 63 63 63 63 63 62 62 62 62 61 61 61 61 61 61 60 60 60 60 60 60 60 60 59 59 59 59 59 59 59 58 58 58 57 55 53 51 49 46 44 42 41 41 41 41 42 42 42 42 41 41 41 40 40 39 38
13 14 14 15 15 16 17 19 21 23 26 28 30 33 35 37 38 40 42 44 46 47 49 51 53 55 56 58 59 60 61 62 63 63 63 63 63 63 63 63 63 62 62 62 62 61 61 61 60 60 60 60 59 59 59 59 59 59 58 58 58 57 56 55 53 51 48 46 44 42 41 40 41 41 41 41 41 41 40 40 39 39 38 38 37 37 36
10 10 10 10 11 11 12 13 14 16 18 21 23 25 27 30 32 34 36 38 40 42 43 45 47 49 51 53 54 56 57 58 59 60 60 61 62 62 62 61 61 61 61 61 60 60 60 60 59 59 59 59 59 59 59 58 58 58 57 56 55 54 52 50 48 45 43 41 40 39 40 41 41 41 41 41 40 39 38 37 37 36 36 36 36 36 36
10 9 8 8 8 8 8 8 9 10 12 14 16 19 21 23 25 27 29 32 34 36 38 40 42 43 45 47 48 50 51 52 53 54 55 56 57 57 58 58 58 58 58 58 58 58 58 58 58 58 58 57 57 57 57 56 56 55 54 52 51 49 47 44 42 41 40 39 39 39 40 40 40 39 39 39 38 37 36 36 35 35 35 35 35 35 35
10 10 9 8 8 7 6 5 6 6 7 9 11 13 15 16 18 20 22 24 26 29 31 33 35 37 38 40 42 43 45 46 48 49 50 51 52 52 53 54 54 54 54 54 55 55 55 55 55 55 55 54 54 53 53 52 51 50 48 46 44 43 41 40 39 39 39 39 39 38 38 38 38 37 37 36 36 35 35 35 35 36 36 36 36 36 36
10 10 10 9 8 7 7 6 6 6 6 6 6 7 9 10 12 14 16 18 20 21 23 25 27 29 31 33 35 37 39 40 42 43 44 45 45 46 47 48 48 49 49 50 50 50 50 50 50 50 50 49 49 48 47 46 44 43 41 40 39 38 38 38 38 38 38 38 37 37 37 36 36 35 35 35 35 35 35 35 35 36 36 37 37 38 39
9 9 9 9 8 7 7 6 6 6 5 5 5 5 5 6 7 8 9 11 13 15 17 18 20 22 23 25 27 29 31 33 34 36 37 38 39 40 41 42 42 43 43 44 44 44 44 44 44 44 43 42 41 40 39 38 37 37 36 36 36 36 37 37 37 36 36 36 36 35 35 35 34 34 35 35 35 35 35 36 36 37 38 38 39 40 41
Wind_Direction
223 221 221 221 221 221 221 220 220 221 222 222 221 221 221 220 220 219 219 219 220 223 224 225 226 227 228 229 229 230 231 232 233 235 236 238 239 241 243 245 247 248 249 250 252 254 255 256 258 259 260 261 262 263 265 266 268 269 271 274 277 279 280 282 284 284 285 285 286 288 289 289 289 290 292 294 295 296 296 296 296 295 294 293 292 290 289
223 222 221 220 220 220 221 221 220 220 220 220 220 220 221 220 220 220 220 220 222 224 226 227 228 229 231 232 233 233 234 235 235 236 236 237 238 240 242 244 246 248 249 250 252 254 256 258 259 261 262 262 263 264 266 267 267 268 271 274 277 279 280 281 283 284 284 285 286 287 288 288 289 291 292 293 294 295 295 294 294 294 293 292 291 289 287
222 222 221 220 219 219 219 220 220 220 220 220 220 219 220 220 220 221 221 222 223 226 228 229 230 231 232 233 235 235 236 236 237 237 238 238 239 240 242 244 246 248 250 251 252 254 256 259 262 263 263 264 264 265 266 267 267 269 272 276 278 279 280 281 282 283 283 284 285 286 287 288 289 291 292 293 293 294 294 295 295 294 293 291 290 288 287
220 220 220 220 219 218 218 218 219 220 220 220 220 220 220 220 221 221 222 222 224 226 228 230 231 232 233 234 235 236 237 237 237 238 238 239 240 242 243 244 246 248 250 251 252 254 258 262 265 265 264 264 265 266 267 267 269 271 274 276 277 279 280 281 281 282 282 283 284 285 286 288 289 290 291 292 293 294 295 295 295 295 294 293 290 288 286
218 218 219 219 219 218 218 218 219 220 220 220 220 220 221 221 221 221 222 223 223 225 227 229 231 232 234 235 235 236 237 237 238 238 239 241 242 243 244 245 247 249 250 252 253 255 258 261 262 263 264 265 267 268 268 269 271 273 275 276 277 278 279 280 281 281 282 282 283 284 285 286 288 290 291 292 293 295 295 296 295 295 295 294 292 289 287
215 216 217 218 218 218 218 219 219 220 221 221 221 222 222 222 223 223 223 224 225 225 226 228 230 232 233 235 236 237 238 239 240 241 242 243 244 245 246 247 248 250 251 252 254 255 257 258 259 261 265 267 269 269 269 270 271 272 274 275 276 277 278 279 280 280 281 281 281 282 284 286 287 289 291 292 293 294 295 295 295 295 294 294 293 291 288
212 213 215 215 216 217 218 218 219 220 221 222 223 223 224 224 225 225 225 226 227 228 228 229 232 233 234 236 238 239 240 241 243 244 244 245 246 248 249 249 250 251 252 254 255 257 258 259 260 263 266 268 269 269 269 269 270 271 272 274 275 277 278 279 279 280 280 280 280 281 283 285 287 289 290 292 293 295 295 295 294 294 294 294 293 292 291
209 211 212 213 214 216 217 217 218 220 222 223 224 225 226 227 227 228 228 228 230 230 231 232 234 235 237 238 240 241 242 244 245 246 246 247 249 250 251 251 252 253 254 256 257 258 259 260 261 264 266 268 268 268 268 268 269 270 272 274 275 277 278 279 279 279 279 279 279 281 283 285 287 288 290 291 293 294 294 294 293 293 293 293 293 293 293
207 209 210 211 213 214 215 217 218 220 221 223 225 226 227 227 228 228 228 229 230 231 233 234 235 237 238 240 242 243 244 245 246 248 248 249 251 252 252 253 254 255 257 258 259 260 261 262 263 264 266 266 266 266 266 267 269 270 272 273 275 276 277 278 278 278 278 278 279 281 283 285 287 288 289 291 293 293 292 292 292 292 292 293 292 292 293
205 207 209 210 211 212 214 216 218 220 221 223 224 226 227 228 228 228 229 230 230 231 233 234 235 237 238 240 242 243 245 246 247 248 249 250 251 253 255 255 256 257 258 259 261 261 262 263 263 264 264 264 264 264 265 267 268 270 271 272 274 275 276 277 277 276 276 277 279 281 283 285 286 287 289 291 292 291 291 290 291 291 292 292 291 290 290
204 206 207 208 210 212 214 215 217 219 222 223 225 227 228 229 230 230 230 231 232 232 234 235 236 237 239 240 241 242 244 246 247 248 250 252 253 255 256 257 257 258 259 260 261 261 262 262 262 262 262 262 263 264 265 266 268 269 270 272 273 274 275 275 275 275 276 278 280 282 283 284 285 286 288 290 291 290 289 289 290 292 293 293 292 291 290
205 205 204 205 208 211 213 215 217 219 221 223 224 226 229 230 231 231 231 232 233 233 234 235 237 238 239 241 242 242 244 246 248 250 252 253 254 255 257 258 258 258 259 260 261 262 263 262 262 261 261 261 262 264 265 267 268 269 271 272 273 273 273 273 274 275 277 279 280 282 282 283 284 286 287 289 289 289 289 290 292 294 294 294 294 293 292
204 205 204 204 206 210 213 214 216 218 220 221 223 225 227 229 230 231 231 232 233 234 235 236 237 238 239 241 243 244 246 248 250 251 252 254 255 256 258 259 259 259 259 259 260 261 262 262 261 261 262 264 265 267 268 268 269 270 271 272 272 272 272 272 274 276 278 279 280 281 281 282 284 286 287 288 288 288 289 292 294 295 295 295 294 294 293
202 203 204 204 206 209 212 214 216 217 219 221 223 225 227 229 230 230 231 233 234 235 236 237 239 240 241 243 245 246 248 250 250 252 253 255 256 258 259 259 260 260 260 259 258 257 258 259 262 263 265 268 270 271 271 271 271 271 271 271 271 271 271 273 275 276 277 278 279 279 280 282 284 285 286 287 287 289 291 293 295 295 295 294 294 293 292
202 203 205 206 208 211 214 216 217 219 220 222 224 227 229 231 232 232 233 234 236 236 238 239 240 241 243 244 246 247 249 250 251 253 255 257 258 259 260 260 260 260 259 258 256 255 256 259 262 265 266 268 270 271 271 270 271 271 270 270 271 271 272 273 274 276 277 277 278 279 280 282 284 285 286 286 288 290 292 294 295 296 295 294 293 292 291
203 204 206 207 210 213 215 216 217 219 220 221 224 227 229 232 234 234 235 237 238 238 239 240 241 243 244 246 247 249 250 251 253 255 257 258 258 258 258 258 259 259 259 258 257 257 258 260 262 263 265 267 269 269 269 269 269 270 270 271 272 272 273 274 274 275 276 276 277 279 281 282 283 284 285 287 289 291 292 293 295 296 295 293 293 292 292
203 204 206 208 211 214 216 217 219 220 222 223 225 228 230 232 234 234 235 236 238 239 240 241 243 244 246 247 248 250 250 252 253 254 254 255 255 255 256 257 258 259 259 258 259 260 261 262 262 263 265 266 266 266 268 269 270 270 271 272 272 272 273 273 274 274 275 277 278 280 281 282 283 284 286 287 289 291 292 294 296 296 295 294 293 293 293
204 205 207 209 212 214 216 218 220 221 224 226 228 230 232 233 234 234 235 236 237 238 240 241 243 245 246 247 248 250 251 251 251 252 253 254 255 256 257 258 259 259 259 259 260 261 262 261 260 260 260 261 263 264 266 269 270 270 270 271 270 271 271 272 273 275 276 277 279 280 280 281 283 284 286 288 289 291 293 295 297 296 295 294 295 295 296
207 208 210 212 213 215 216 218 219 221 223 225 227 229 230 232 233 234 235 235 237 238 240 241 242 243 245 246 248 249 251 251 253 254 255 256 257 257 258 258 259 259 260 260 260 260 260 259 258 258 258 259 261 262 263 265 267 267 268 268 269 270 272 273 274 275 276 278 278 279 280 281 283 285 287 288 290 292 294 296 297 296 296 296 297 298 298
208 210 212 214 215 216 217 218 220 221 222 224 225 227 229 230 232 233 234 235 236 237 239 240 241 243 245 247 249 251 252 253 255 255 256 257 257 258 258 259 259 259 259 260 260 259 258 259 260 260 259 259 260 260 261 262 264 265 267 268 270 271 272 273 274 275 276 278 279 280 281 282 284 285 287 289 292 294 296 297 297 298 298 298 299 299 299
208 211 213 215 216 217 218 220 221 222 224 225 227 228 230 231 232 234 235 237 237 238 240 241 243 245 247 249 250 252 254 255 256 256 257 258 258 259 259 260 260 260 259 259 259 258 258 259 261 261 260 260 260 260 260 262 263 265 267 269 270 271 272 273 274 276 277 278 279 279 280 282 284 286 289 291 294 295 297 298 298 298 298 298 298 298 298
212 214 216 218 220 221 222 223 225 226 227 228 230 231 232 234 235 236 238 239 241 241 242 243 244 246 247 249 250 251 253 253 254 256 257 259 260 260 261 261 260 260 259 259 259 259 259 261 262 261 260 259 259 260 261 262 264 265 267 268 270 271 272 273 274 276 276 277 277 279 281 283 286 288 290 293 295 296 297 298 298 298 298 298 298 299 299
216 217 219 221 222 224 225 226 228 229 230 231 232 233 234 236 237 238 239 241 242 243 244 244 245 246 247 248 249 250 250 252 253 255 256 258 259 260 260 261 260 259 258 258 258 259 261 262 262 261 260 259 259 260 261 262 263 265 266 267 269 270 271 272 273 274 275 276 278 280 283 285 287 290 292 294 296 296 296 296 296 297 298 299 299 300 301
218 219 220 222 224 225 226 227 228 229 231 232 233 235 236 237 238 239 240 241 242 243 243 244 244 245 247 248 249 250 250 251 252 253 254 256 257 258 259 259 259 257 256 256 256 258 261 263 263 262 261 260 260 261 261 262 263 264 265 267 268 269 270 271 272 274 276 278 280 282 285 287 289 291 293 294 295 295 295 296 297 298 299 300 301 302 303
222 223 224 225 226 227 228 229 230 231 232 233 234 236 236 237 238 239 240 241 241 242 243 244 244 246 247 248 249 250 251 251 252 253 254 253 254 255 256 256 256 256 255 255 255 257 260 262 262 260 259 258 258 259 259 260 262 263 264 265 266 268 270 272 274 276 278 280 283 285 287 289 291 292 293 294 294 295 296 297 299 300 301 302 303 303 304
227 227 228 229 230 231 233 234 235 235 236 237 237 238 238 238 239 240 241 242 242 243 244 244 244 244 245 246 247 249 250 251 252 253 253 251 251 252 254 254 255 255 254 254 256 259 261 260 258 257 256 256 256 257 258 260 261 262 263 265 268 270 273 275 277 279 281 283 286 288 289 291 292 292 293 294 295 297 298 299 300 301 302 302 303 304 305
231 231 232 233 234 235 236 237 238 239 239 239 239 239 239 239 239 240 241 242 243 243 243 242 242 242 242 242 243 245 247 249 250 251 250 250 250 251 252 253 253 253 253 254 258 259 258 256 255 255 256 256 257 258 259 260 262 264 266 268 271 273 275 277 279 282 284 286 288 289 290 291 292 293 294 296 297 298 299 300 300 301 302 303 304 305 306
231 232 233 234 235 236 237 238 238 239 239 238 238 237 237 236 236 237 238 240 241 241 241 240 240 241 240 239 239 241 243 244 245 247 247 248 249 250 252 252 252 252 253 256 257 256 254 254 254 255 256 257 258 260 261 263 265 267 269 271 273 275 277 279 282 284 286 288 289 291 292 292 293 294 296 297 298 299 299 300 301 302 303 304 305 306 307
225 225 227 227 228 230 231 231 231 232 232 232 231 230 230 230 231 231 233 235 236 238 239 239 239 239 239 238 238 239 239 239 241 244 246 247 248 250 251 252 251 252 254 255 254 252 251 251 252 254 256 258 260 262 264 266 268 270 272 274 276 278 280 282 284 287 289 291 292 293 293 294 294 295 296 297 298 299 300 301 302 303 304 305 305 306 307
213 214 216 217 218 219 220 220 220 221 221 222 222 222 222 224 225 226 227 230 232 233 235 236 236 237 237 237 237 238 238 239 241 244 247 249 250 251 252 253 252 252 252 251 250 249 248 249 251 254 256 259 261 264 267 269 272 274 276 277 279 281 284 286 288 290 292 294 294 294 294 294 294 295 296 297 298 300 301 301 302 303 304 305 305 306 306
211 212 212 213 213 214 215 215 215 216 216 216 216 216 216 218 220 222 224 226 228 230 231 231 231 232 232 233 235 237 239 241 243 245 248 251 252 253 255 258 257 255 253 250 249 249 249 250 252 255 259 262 266 269 272 275 277 278 280 281 283 285 288 290 292 293 294 294 293 293 293 293 294 295 297 298 299 300 300 301 302 303 304 305 306 306 306
215 216 216 215 214 214 215 216 216 216 216 216 215 215 215 216 217 219 221 223 225 228 230 231 230 230 230 232 235 237 239 242 244 245 247 249 250 252 256 260 263 263 261 260 260 260 260 261 263 266 269 272 274 276 278 279 280 281 283 285 287 289 290 292 292 293 293 292 292 292 293 294 295 296 298 298 299 300 301 302 302 303 304 305 306 306 306
219 220 221 220 219 219 220 220 220 220 220 219 218 217 217 216 217 218 220 221 223 226 228 230 231 232 232 233 235 237 238 240 241 243 244 246 247 249 252 256 260 262 264 265 267 268 270 271 272 273 274 275 276 278 279 280 281 283 285 287 288 290 291 291 291 291 291 291 291 292 293 294 296 297 298 299 299 300 301 302 302 303 304 305 305 305 304
223 222 222 222 221 221 222 222 222 221 221 220 220 219 218 218 218 219 220 222 223 225 227 229 231 232 234 235 235 237 238 239 239 241 242 244 246 248 249 251 253 255 257 259 262 264 266 268 270 271 273 275 276 278 279 281 282 284 286 287 288 289 289 289 289 289 289 290 291 292 294 295 296 297 298 299 300 301 301 302 302 303 304 304 304 304 303
234 231 229 227 225 223 223 224 224 223 222 221 220 220 220 220 220 220 221 223 224 226 228 230 232 234 235 235 236 237 238 238 239 240 241 242 244 246 247 248 250 252 255 257 260 262 265 267 269 271 273 275 277 278 279 281 283 284 285 286 286 287 287 287 287 288 289 290 292 293 294 295 296 297 298 299 300 301 301 302 302 303 304 304 303 303 302
240 239 238 236 234 231 229 229 229 228 226 224 222 221 221 221 221 221 222 223 224 225 227 229 230 232 232 233 234 236 237 238 239 241 242 243 245 246 248 249 251 254 256 258 261 263 265 268 270 272 273 275 276 278 279 281 282 283 283 284 284 285 285 286 287 288 290 291 292 294 295 296 297 298 299 300 300 301 301 302 302 303 303 303 302 302 300
240 241 241 240 240 239 237 236 236 235 233 231 228 226 224 223 223 223 223 224 224 226 227 227 229 230 231 232 234 236 238 239 241 243 245 246 247 249 250 252 254 257 259 261 263 266 268 269 270 272 273 275 276 278 279 280 280 281 281 282 283 284 285 287 288 290 291 292 293 294 295 296 297 298 299 300 300 300 301 301 302 302 302 301 301 300 298
242 241 241 241 241 241 240 240 239 240 239 238 236 233 231 230 229 228 227 227 227 228 228 229 230 231 232 234 235 237 239 241 243 245 247 249 250 251 253 256 258 260 263 265 267 268 269 270 271 272 274 275 276 277 277 278 278 279 280 282 283 285 286 288 289 290 292 293 294 295 296 297 298 298 299 299 299 300 300 301 301 300 300 299 298 297 297
247 245 244 242 242 242 242 241 241 240 240 240 240 239 238 237 236 235 235 234 234 234 234 234 235 236 237 238 239 241 242 245 246 248 250 252 254 257 259 261 263 264 266 267 268 269 270 271 272 273 274 274 275 275 276 277 278 279 281 282 284 286 287 289 290 291 292 293 294 295 296 297 297 298 298 299 299 299 299 299 299 299 298 297 297 297 297
252 250 249 247 246 244 243 243 242 241 241 241 241 241 240 240 239 239 239 239 239 239 240 240 240 241 242 243 244 245 247 249 251 253 255 257 259 261 263 264 265 266 267 268 268 269 270 271 271 272 272 273 274 274 276 277 279 281 282 284 285 287 288 289 290 291 292 293 294 295 296 296 297 297 298 298 298 299 299 299 298 297 297 297 297 297 297
254 254 253 251 250 248 247 246 244 244 243 243 242 242 242 241 241 241 241 241 241 242 243 243 243 244 245 246 247 249 251 253 254 256 258 259 261 262 264 265 266 267 268 269 269 269 269 269 270 271 272 273 274 276 277 279 281 282 284 285 286 287 288 289 290 291 292 293 294 294 295 296 297 297 297 297 297 298 298 297 297 296 296 297 297 297 297
255 255 254 254 252 251 249 248 247 246 245 244 244 244 243 243 243 243 243 242 242 243 243 244 245 246 247 248 249 250 252 254 255 256 258 259 261 262 264 265 266 267 267 268 268 268 269 270 271 272 273 274 276 277 279 280 281 282 283 284 285 286 288 289 290 291 292 293 293 294 295 296 296 296 295 296 296 296 295 295 295 295 295 295 296 296 296
255 255 254 254 253 253 252 250 249 248 247 246 246 245 244 244 244 244 244 244 244 244 244 244 245 246 247 248 249 250 251 253 254 255 257 259 260 262 263 264 265 265 266 267 268 269 270 271 272 273 274 275 276 278 279 280 281 282 283 284 285 287 288 289 290 291 291 292 293 294 294 294 294 293 293 293 293 293 293 293 293 293 294 294 294 295 295
261 259 257 255 254 253 252 251 250 249 248 247 247 246 245 244 244 244 244 244 244 244 244 245 245 246 247 248 249 250 251 252 254 255 257 258 260 261 262 263 264 265 266 267 269 269 270 271 271 272 273 275 276 277 278 279 280 281 283 284 286 287 287 288 289 289 290 291 292 292 292 292 292 292 291 291 291 291 291 291 292 292 292 293 293 294 294
269 266 263 261 258 255 253 251 250 249 248 247 247 246 246 245 245 245 245 245 245 245 245 245 245 246 247 248 249 250 252 253 254 256 257 258 259 260 261 262 264 264 265 266 267 267 268 269 270 271 273 274 275 276 277 279 280 282 283 284 284 285 286 287 287 288 289 290 290 290 290 290 290 289 289 288 289 289 290 290 291 292 292 293 293 294 294
274 273 271 268 264 260 256 253 251 250 249 248 247 247 246 246 245 246 246 246 246 246 246 246 246 247 247 248 249 250 251 252 253 255 256 257 258 260 260 261 262 262 263 264 265 266 267 269 270 272 273 274 276 277 278 279 280 281 281 282 283 284 285 286 286 287 288 288 288 287 287 287 286 286 286 287 287 288 289 290 291 292 293 293 294 294 295
275 274 274 274 271 267 262 258 254 252 250 249 248 247 246 246 245 245 245 246 246 246 247 247 247 247 247 248 249 250 251 252 253 254 255 256 257 258 259 260 261 262 263 264 265 267 268 269 271 272 273 274 276 277 277 278 278 279 280 281 282 283 284 284 285 285 285 285 284 284 284 284 284 285 286 286 287 288 289 290 290 291 292 293 293 294 295
286 282 278 277 275 272 268 264 260 256 253 250 248 247 246 246 245 245 245 245 245 246 246 246 246 246 247 247 248 249 249 250 251 252 253 254 255 257 258 259 260 261 262 264 265 266 267 269 270 271 272 273 274 275 276 277 278 279 280 280 281 282 282 282 283 282 282 281 281 281 282 283 284 285 286 287 287 289 289 290 290 290 291 291 292 293 294
303 302 297 291 284 277 271 268 265 261 258 255 252 249 247 246 245 244 244 244 244 245 245 245 245 245 246 246 247 248 249 250 251 252 252 253 255 256 257 258 259 260 261 262 264 265 266 267 268 269 270 272 273 274 275 276 277 278 278 279 279 280 280 280 280 279 279 279 280 281 282 284 285 286 286 287 288 290 290 290 290 291 291 291 291 292 293
309 311 311 310 306 300 295 292 287 280 272 263 256 252 249 246 245 244 244 243 243 244 244 244 244 245 245 246 246 247 248 248 249 250 251 252 253 255 256 257 258 259 260 261 263 264 265 266 267 268 270 271 272 273 273 274 275 275 276 276 276 277 277 277 277 278 279 280 282 283 283 284 285 286 287 288 289 290 290 291 291 291 292 292 292 292 293
306 309 311 312 312 314 316 316 311 302 290 278 267 260 254 249 246 243 242 241 241 241 242 243 243 244 244 245 245 245 246 247 248 249 250 251 252 253 254 256 257 258 259 260 261 262 264 265 266 267 268 269 269 270 271 271 272 272 272 273 274 274 275 276 277 278 280 281 282 282 283 284 285 286 287 288 289 289 290 290 290 291 292 292 293 294 294
299 301 304 304 305 309 314 314 311 306 299 292 284 276 267 260 253 247 244 241 240 239 239 239 240 241 241 242 243 244 245 246 247 248 249 250 251 252 253 254 255 256 257 258 259 260 262 263 264 264 265 266 266 267 268 268 268 269 270 271 272 273 274 276 277 279 280 281 281 281 282 283 285 286 287 287 288 289 289 289 290 291 291 292 293 294 296
Height
10459 10464 10467 10470 10476 10482 10488 10494 10499 10505 10511 10517 10525 10531 10536 10541 10546 10550 10554 10558 10561 10563 10566 10569 10571 10575 10578 10581 10584 10588 10590 10593 10596 10598 10601 10603 10605 10607 10607 10608 10609 10611 10613 10614 10613 10613 10614 10616 10617 10617 10618 10618 10619 10619 10620 10620 10620 10619 10619 10619 10619 10618 10617 10616 10615 10615 10614 10613 10613 10612 10611 10610 10609 10608 10607 10606 10605 10604 10603 10602 10601 10600 10599 10598 10598 10597 10596
10456 10460 10463 10467 10472 10478 10484 10489 10494 10500 10506 10512 10518 10524 10529 10535 10540 10545 10550 10555 10557 10559 10563 10565 10568 10572 10575 10578 10581 10584 10587 10589 10592 10594 10597 10599 10601 10602 10603 10604 10606 10607 10607 10608 10607 10608 10609 10611 10612 10613 10612 10613 10613 10614 10615 10615 10614 10614 10615 10615 10614 10613 10612 10611 10610 10609 10609 10608 10607 10606 10605 10604 10603 10603 10602 10601 10600 10599 10598 10597 10596 10595 10594 10593 10592 10591 10590
10451 10455 10459 10463 10468 10473 10479 10484 10489 10495 10500 10506 10512 10518 10524 10530 10536 10541 10546 10550 10553 10556 10558 10561 10564 10568 10571 10574 10577 10579 10581 10584 10587 10589 10592 10594 10596 10598 10598 10600 10601 10601 10601 10602 10602 10603 10604 10606 10607 10607 10606 10606 10608 10609 10609 10609 10609 10609 10610 10610 10609 10608 10606 10605 10605 10604 10603 10603 10602 10601 10600 10599 10598 10597 10597 10596 10595 10594 10592 10591 10590 10589 10588 10586 10585 10584 10584
10446 10450 10454 10459 10463 10468 10473 10478 10484 10489 10495 10502 10508 10514 10520 10526 10531 10536 10540 10544 10548 10550 10553 10556 10560 10563 10565 10568 10570 10572 10575 10577 10581 10584 10587 10589 10592 10593 10593 10594 10595 10595 10595 10596 10597 10599 10600 10602 10602 10600 10598 10600 10602 10603 10604 10603 10603 10604 10604 10604 10603 10602 10601 10600 10599 10599 10598 10597 10596 10595 10595 10594 10593 10592 10591 10590 10589 10588 10587 10585 10584 10582 10581 10580 10579 10578 10577
10441 10446 10450 10453 10458 10464 10470 10475 10480 10486 10492 10499 10505 10511 10516 10521 10526 10531 10534 10537 10541 10544 10548 10551 10554 10556 10559 10561 10563 10565 10568 10571 10575 10578 10582 10586 10588 10588 10587 10588 10589 10590 10590 10591 10593 10594 10596 10598 10597 10593 10591 10594 10597 10598 10598 10598 10598 10598 10598 10598 10597 10596 10595 10594 10594 10593 10592 10592 10591 10590 10589 10589 10588 10587 10586 10584 10583 10582 10580 10579 10577 10576 10574 10573 10571 10571 10570
10436 10441 10445 10450 10456 10462 10468 10474 10479 10484 10490 10496 10501 10507 10512 10517 10522 10526 10529 10532 10536 10540 10543 10545 10548 10550 10552 10554 10557 10560 10563 10567 10571 10574 10578 10580 10581 10581 10581 10582 10583 10584 10585 10586 10588 10591 10592 10593 10590 10587 10587 10590 10592 10593 10593 10592 10592 10592 10592 10592 10591 10590 10590 10589 10588 10587 10587 10586 10585 10584 10584 10583 10582 10581 10580 10579 10577 10576 10574 10573 10571 10569 10568 10566 10564 10563 10562
10430 10436 10441 10447 10454 10460 10465 10471 10477 10482 10487 10492 10498 10503 10509 10514 10518 10522 10525 10529 10532 10535 10538 10541 10543 10545 10548 10551 10553 10556 10559 10563 10566 10569 10572 10573 10574 10574 10574 10575 10576 10577 10579 10581 10584 10586 10587 10586 10584 10582 10583 10584 10586 10587 10586 10585 10585 10585 10585 10586 10585 10585 10584 10583 10582 10582 10581 10580 10579 10579 10579 10578 10577 10576 10574 10573 10571 10570 10568 10567 10565 10563 10562 10560 10558 10556 10554
10427 10433 10439 10446 10452 10456 10462 10468 10474 10479 10484 10489 10494 10499 10504 10510 10514 10518 10521 10524 10527 10531 10534 10537 10539 10541 10544 10546 10549 10552 10556 10558 10561 10562 10564 10566 10567 10567 10566 10567 10569 10572 10574 10577 10578 10580 10580 10580 10579 10579 10578 10578 10579 10579 10578 10578 10578 10579 10579 10580 10579 10579 10578 10577 10577 10576 10575 10574 10573 10573 10573 10573 10571 10570 10568 10567 10565 10564 10562 10561 10559 10557 10556 10554 10552 10550 10548
10426 10431 10436 10442 10447 10453 10460 10466 10471 10476 10480 10484 10489 10493 10498 10504 10508 10512 10515 10518 10522 10525 10528 10531 10534 10537 10539 10542 10545 10548 10550 10552 10554 10555 10557 10559 10559 10558 10559 10561 10564 10567 10569 10571 10572 10573 10574 10574 10574 10574 10573 10571 10571 10570 10570 10570 10571 10572 10573 10573 10573 10572 10572 10571 10571 10570 10569 10568 10568 10568 10568 10567 10565 10564 10562 10561 10559 10558 10556 10555 10553 10551 10549 10547 10545 10543 10541
10423 10427 10433 10439 10445 10452 10458 10463 10466 10471 10475 10479 10484 10488 10493 10498 10502 10506 10509 10512 10516 10520 10523 10526 10529 10532 10535 10538 10540 10542 10543 10545 10547 10549 10551 10551 10551 10552 10554 10557 10560 10562 10564 10565 10566 10567 10567 10567 10568 10568 10566 10563 10563 10563 10564 10564 10565 10566 10566 10566 10566 10566 10566 10565 10564 10563 10563 10563 10563 10563 10562 10561 10559 10558 10556 10555 10553 10552 10550 10548 10546 10544 10543 10541 10539 10537 10535
10421 10426 10433 10440 10446 10451 10455 10458 10462 10467 10471 10475 10480 10484 10489 10493 10497 10500 10504 10507 10511 10514 10517 10520 10523 10527 10530 10532 10533 10535 10538 10539 10541 10543 10545 10545 10546 10548 10550 10552 10554 10556 10558 10559 10559 10559 10560 10560 10560 10560 10557 10556 10556 10557 10558 10559 10559 10559 10560 10560 10560 10560 10559 10558 10557 10557 10557 10558 10558 10557 10556 10554 10553 10551 10550 10549 10547 10545 10544 10542 10540 10538 10536 10534 10532 10530 10528
10421 10425 10431 10438 10442 10446 10450 10454 10459 10462 10466 10471 10476 10482 10486 10489 10491 10495 10498 10501 10505 10508 10511 10514 10518 10521 10523 10524 10527 10530 10533 10534 10537 10539 10539 10540 10541 10542 10544 10545 10548 10550 10552 10553 10553 10552 10552 10552 10552 10551 10549 10549 10550 10551 10552 10553 10553 10553 10554 10554 10553 10553 10552 10552 10551 10552 10553 10553 10552 10551 10549 10548 10547 10545 10544 10543 10541 10539 10537 10535 10533 10531 10529 10527 10524 10522 10520
10419 10424 10429 10433 10437 10441 10444 10449 10453 10456 10461 10467 10474 10478 10480 10482 10485 10489 10492 10495 10499 10502 10505 10509 10512 10514 10516 10518 10522 10526 10529 10531 10533 10533 10533 10534 10535 10537 10538 10540 10541 10543 10546 10547 10547 10547 10546 10544 10543 10543 10542 10542 10544 10545 10547 10547 10547 10547 10547 10547 10547 10546 10546 10546 10546 10547 10547 10547 10546 10544 10543 10542 10540 10539 10538 10536 10534 10532 10530 10529 10527 10524 10522 10519 10517 10515 10513
10415 10420 10424 10428 10433 10436 10439 10444 10448 10453 10459 10466 10471 10472 10474 10476 10480 10484 10488 10491 10494 10497 10501 10504 10507 10509 10512 10515 10519 10523 10524 10525 10526 10527 10527 10528 10530 10532 10533 10533 10534 10537 10540 10541 10542 10541 10538 10537 10537 10537 10537 10537 10538 10539 10540 10540 10540 10541 10541 10541 10541 10541 10541 10541 10542 10542 10541 10541 10539 10538 10537 10536 10534 10533 10531 10530 10528 10526 10524 10522 10520 10517 10515 10512 10510 10508 10506
10412 10417 10422 10427 10432 10434 10437 10441 10447 10452 10458 10463 10465 10467 10470 10473 10476 10480 10484 10487 10490 10494 10497 10499 10502 10504 10508 10511 10515 10517 10518 10519 10520 10521 10522 10523 10525 10526 10527 10527 10529 10532 10534 10535 10534 10533 10532 10533 10533 10532 10531 10531 10531 10533 10533 10533 10533 10534 10535 10535 10535 10536 10536 10536 10536 10536 10536 10535 10533 10532 10531 10529 10528 10526 10525 10523 10521 10519 10517 10515 10513 10510 10508 10505 10503 10501 10498
10412 10417 10421 10425 10427 10429 10433 10438 10443 10449 10453 10457 10460 10463 10466 10469 10473 10477 10481 10483 10486 10489 10492 10494 10497 10500 10504 10507 10510 10511 10512 10513 10514 10516 10517 10518 10520 10521 10521 10522 10524 10526 10528 10529 10527 10526 10528 10530 10528 10526 10526 10525 10526 10526 10525 10525 10527 10529 10529 10529 10530 10531 10531 10531 10531 10531 10530 10528 10527 10526 10524 10523 10521 10520 10518 10517 10515 10513 10511 10508 10506 10503 10501 10498 10496 10494 10491
10409 10413 10417 10419 10422 10426 10431 10436 10441 10446 10451 10454 10457 10460 10463 10466 10469 10473 10476 10479 10481 10484 10487 10489 10493 10496 10500 10503 10504 10505 10506 10508 10510 10511 10512 10513 10513 10514 10515 10517 10519 10520 10522 10523 10521 10520 10523 10525 10524 10522 10521 10520 10520 10519 10517 10518 10522 10523 10523 10524 10525 10525 10525 10525 10525 10525 10523 10522 10521 10519 10518 10516 10515 10513 10512 10510 10508 10506 10504 10501 10499 10496 10493 10491 10489 10486 10484
10407 10410 10413 10416 10420 10424 10430 10434 10439 10444 10448 10451 10454 10457 10460 10463 10465 10468 10471 10474 10477 10479 10482 10486 10489 10493 10495 10498 10499 10500 10501 10503 10505 10506 10506 10507 10507 10508 10509 10511 10513 10514 10515 10516 10516 10516 10517 10518 10518 10517 10516 10515 10514 10514 10513 10514 10516 10518 10518 10519 10519 10520 10520 10520 10519 10518 10517 10516 10514 10513 10511 10510 10508 10507 10506 10504 10501 10499 10497 10494 10492 10489 10486 10484 10481 10479 10477
10406 10409 10411 10414 10418 10422 10427 10432 10436 10440 10444 10446 10449 10452 10455 10458 10461 10464 10467 10469 10472 10476 10478 10481 10485 10488 10490 10492 10493 10494 10496 10497 10499 10500 10501 10501 10501 10502 10504 10505 10506 10507 10508 10510 10511 10511 10511 10511 10511 10512 10511 10510 10510 10511 10511 10511 10512 10512 10513 10514 10514 10514 10514 10513 10513 10512 10510 10509 10508 10506 10505 10504 10502 10501 10499 10497 10495 10492 10490 10487 10484 10482 10479 10476 10474 10472 10469
10404 10406 10409 10412 10416 10421 10426 10429 10433 10436 10439 10442 10444 10447 10450 10453 10456 10459 10462 10464 10468 10470 10473 10477 10481 10483 10484 10486 10487 10488 10490 10492 10493 10494 10494 10494 10495 10496 10498 10498 10500 10501 10502 10503 10504 10505 10504 10504 10505 10506 10506 10506 10506 10506 10506 10507 10507 10508 10508 10508 10508 10508 10508 10507 10506 10505 10504 10503 10502 10500 10499 10498 10496 10494 10492 10490 10488 10485 10482 10480 10477 10474 10472 10469 10466 10464 10462
10401 10403 10406 10411 10415 10420 10423 10427 10430 10433 10435 10438 10441 10444 10447 10449 10452 10455 10457 10459 10462 10465 10469 10472 10475 10477 10478 10480 10481 10482 10484 10486 10486 10487 10487 10488 10489 10490 10491 10492 10493 10495 10496 10497 10497 10498 10498 10499 10499 10500 10500 10500 10501 10501 10502 10502 10503 10503 10503 10503 10502 10502 10501 10500 10499 10499 10498 10497 10496 10494 10493 10491 10489 10487 10485 10483 10481 10478 10475 10472 10470 10467 10465 10462 10459 10457 10454
10399 10403 10407 10411 10415 10418 10421 10424 10427 10429 10432 10435 10437 10439 10442 10444 10447 10450 10452 10455 10458 10461 10464 10466 10469 10471 10472 10473 10474 10476 10477 10479 10479 10480 10481 10481 10483 10483 10484 10486 10487 10488 10489 10490 10491 10491 10492 10493 10493 10493 10494 10495 10495 10496 10497 10498 10498 10498 10498 10497 10496 10496 10495 10494 10493 10493 10492 10491 10490 10488 10486 10484 10482 10480 10478 10476 10474 10471 10468 10465 10463 10460 10458 10455 10452 10450 10447
10398 10402 10405 10408 10411 10414 10417 10420 10422 10424 10427 10429 10431 10434 10436 10439 10442 10445 10447 10450 10453 10455 10457 10460 10463 10464 10465 10466 10467 10468 10470 10472 10473 10474 10474 10475 10476 10476 10477 10479 10481 10482 10483 10484 10485 10486 10486 10487 10487 10487 10488 10489 10490 10491 10492 10492 10492 10492 10491 10491 10490 10489 10488 10488 10487 10487 10487 10485 10484 10482 10480 10478 10476 10474 10472 10469 10467 10464 10462 10459 10456 10453 10450 10447 10445 10442 10439
10395 10398 10401 10403 10406 10408 10411 10413 10415 10418 10421 10424 10427 10429 10432 10434 10437 10440 10442 10444 10446 10449 10452 10454 10457 10458 10459 10459 10459 10461 10463 10466 10467 10468 10469 10469 10469 10470 10471 10472 10474 10475 10477 10479 10480 10480 10481 10481 10481 10482 10482 10483 10484 10485 10486 10486 10486 10485 10485 10485 10484 10483 10482 10482 10482 10482 10481 10479 10478 10476 10474 10471 10469 10467 10465 10462 10460 10458 10455 10452 10449 10446 10443 10439 10436 10434 10431
10391 10394 10396 10399 10401 10403 10405 10407 10410 10413 10416 10419 10422 10424 10427 10429 10432 10434 10435 10437 10440 10443 10446 10449 10452 10454 10455 10454 10454 10455 10457 10459 10461 10462 10463 10463 10463 10463 10465 10466 10467 10469 10472 10473 10474 10475 10476 10476 10476 10477 10477 10478 10478 10479 10479 10479 10479 10480 10480 10479 10478 10477 10476 10476 10476 10476 10474 10473 10471 10469 10467 10464 10462 10459 10457 10455 10453 10451 10448 10445 10441 10438 10435 10432 10428 10425 10423
10387 10389 10391 10394 10396 10398 10401 10403 10406 10409 10411 10414 10416 10418 10421 10424 10426 10427 10429 10431 10434 10438 10441 10443 10446 10448 10449 10449 10449 10449 10450 10452 10455 10456 10456 10456 10457 10458 10459 10460 10462 10464 10466 10468 10469 10470 10470 10471 10471 10471 10472 10472 10473 10473 10473 10474 10475 10475 10475 10474 10473 10472 10471 10470 10470 10469 10468 10467 10465 10463 10460 10457 10455 10452 10450 10448 10445 10443 10440 10438 10435 10431 10428 10424 10421 10418 10414
10383 10385 10387 10389 10391 10393 10396 10398 10400 10402 10405 10407 10409 10412 10414 10417 10419 10421 10423 10425 10428 10432 10434 10436 10438 10439 10441 10443 10443 10443 10445 10448 10449 10450 10450 10451 10451 10452 10454 10455 10456 10458 10461 10463 10464 10465 10465 10465 10465 10466 10467 10467 10468 10468 10469 10469 10470 10470 10470 10469 10468 10466 10465 10464 10463 10463 10462 10460 10458 10456 10453 10451 10448 10446 10443 10440 10438 10435 10433 10430 10427 10424 10421 10417 10414 10410 10407
10378 10380 10382 10384 10386 10388 10390 10393 10395 10396 10398 10400 10402 10404 10407 10409 10412 10414 10416 10418 10421 10424 10426 10428 10431 10433 10435 10436 10437 10438 10440 10443 10443 10443 10445 10446 10446 10448 10449 10449 10450 10453 10457 10459 10459 10459 10459 10459 10460 10461 10462 10462 10463 10463 10464 10464 10464 10464 10464 10463 10462 10460 10459 10458 10457 10456 10455 10453 10451 10449 10446 10444 10441 10439 10437 10434 10430 10427 10425 10422 10420 10416 10413 10410 10406 10403 10399
10373 10375 10377 10379 10381 10383 10386 10388 10389 10391 10392 10394 10396 10398 10401 10403 10405 10407 10410 10412 10415 10417 10419 10422 10425 10426 10428 10431 10433 10434 10436 10437 10438 10438 10439 10440 10442 10443 10443 10442 10445 10450 10453 10454 10454 10454 10454 10455 10456 10456 10457 10457 10457 10458 10458 10458 10457 10457 10457 10456 10455 10454 10453 10452 10450 10449 10447 10445 10443 10441 10439 10436 10434 10432 10430 10427 10424 10421 10417 10414 10411 10408 10405 10402 10399 10396 10392
10369 10371 10373 10375 10377 10378 10380 10382 10384 10385 10387 10389 10391 10393 10395 10397 10400 10402 10405 10407 10410 10412 10414 10417 10419 10421 10424 10426 10427 10428 10430 10432 10433 10434 10434 10434 10437 10437 10435 10435 10440 10446 10448 10448 10448 10448 10449 10450 10451 10451 10452 10452 10452 10452 10452 10451 10451 10450 10450 10449 10449 10447 10446 10445 10443 10441 10439 10437 10435 10433 10431 10429 10427 10425 10423 10421 10418 10415 10411 10407 10404 10401 10398 10395 10392 10389 10386
10365 10367 10369 10371 10373 10374 10376 10378 10380 10381 10383 10385 10387 10389 10391 10393 10396 10398 10400 10403 10405 10407 10410 10412 10414 10417 10419 10420 10421 10423 10425 10426 10427 10429 10429 10429 10430 10430 10428 10429 10435 10440 10442 10442 10442 10442 10443 10445 10446 10446 10446 10446 10446 10446 10445 10445 10444 10443 10443 10442 10441 10440 10439 10438 10436 10434 10432 10430 10428 10426 10423 10421 10419 10417 10416 10413 10411 10408 10404 10401 10397 10394 10391 10387 10385 10382 10379
10361 10363 10365 10367 10369 10371 10373 10375 10377 10378 10380 10382 10384 10386 10388 10390 10392 10395 10397 10399 10401 10404 10406 10408 10410 10412 10414 10415 10417 10419 10420 10421 10422 10424 10424 10424 10425 10425 10425 10426 10429 10431 10433 10434 10434 10435 10436 10437 10438 10438 10439 10439 10439 10439 10439 10438 10437 10436 10435 10435 10434 10433 10431 10430 10428 10427 10425 10423 10421 10419 10416 10414 10412 10410 10408 10406 10403 10400 10397 10394 10390 10387 10383 10380 10378 10374 10371
10358 10360 10362 10364 10366 10368 10370 10371 10373 10375 10377 10379 10381 10382 10384 10386 10389 10391 10393 10395 10397 10400 10401 10403 10405 10407 10409 10411 10413 10414 10415 10416 10418 10419 10419 10420 10420 10421 10423 10424 10425 10426 10427 10427 10428 10428 10429 10430 10431 10431 10432 10431 10432 10432 10432 10431 10431 10430 10429 10428 10427 10425 10424 10422 10421 10420 10418 10416 10414 10412 10410 10407 10405 10403 10400 10398 10395 10393 10389 10386 10383 10380 10377 10374 10371 10368 10365
10355 10356 10358 10360 10362 10364 10366 10367 10369 10371 10372 10374 10376 10378 10380 10382 10384 10387 10389 10391 10393 10395 10397 10399 10400 10402 10404 10406 10408 10409 10409 10411 10412 10413 10414 10415 10417 10418 10420 10422 10422 10422 10422 10423 10424 10424 10425 10425 10426 10426 10426 10425 10426 10426 10425 10424 10424 10423 10422 10420 10419 10418 10417 10416 10414 10413 10411 10409 10407 10405 10403 10401 10398 10396 10393 10390 10388 10385 10382 10378 10375 10372 10370 10367 10364 10362 10359
10350 10352 10354 10356 10358 10360 10361 10363 10364 10366 10368 10370 10372 10374 10376 10378 10380 10382 10384 10386 10388 10391 10392 10394 10396 10398 10399 10401 10402 10403 10404 10406 10407 10408 10410 10412 10413 10414 10415 10416 10417 10417 10418 10419 10419 10420 10420 10421 10421 10420 10420 10420 10419 10419 10418 10418 10417 10416 10415 10413 10412 10411 10410 10409 10408 10406 10404 10402 10400 10398 10396 10393 10391 10388 10386 10383 10380 10377 10374 10371 10368 10365 10362 10360 10358 10355 10353
10346 10347 10349 10351 10352 10354 10356 10358 10359 10361 10363 10366 10368 10370 10372 10374 10376 10378 10380 10382 10384 10386 10387 10389 10390 10392 10394 10395 10396 10397 10399 10401 10402 10404 10405 10407 10408 10409 10409 10410 10411 10412 10412 10413 10413 10415 10416 10416 10415 10415 10414 10414 10413 10412 10411 10411 10410 10409 10407 10406 10405 10404 10403 10402 10400 10399 10397 10395 10393 10391 10389 10386 10383 10381 10378 10375 10373 10370 10367 10364 10361 10358 10355 10353 10351 10349 10347
10340 10342 10343 10345 10347 10348 10350 10352 10354 10355 10357 10359 10361 10364 10366 10369 10371 10373 10375 10377 10379 10380 10381 10383 10385 10386 10388 10390 10391 10393 10394 10396 10397 10399 10400 10401 10402 10402 10403 10404 10406 10406 10406 10407 10408 10409 10410 10409 10408 10408 10407 10407 10406 10405 10405 10404 10403 10402 10401 10399 10399 10398 10396 10395 10393 10391 10390 10388 10386 10384 10381 10379 10376 10373 10370 10367 10365 10362 10359 10357 10354 10352 10349 10347 10345 10343 10341
10334 10336 10337 10339 10340 10342 10344 10346 10348 10349 10350 10352 10354 10357 10360 10362 10365 10367 10368 10370 10372 10374 10375 10377 10379 10381 10383 10384 10386 10387 10389 10390 10391 10392 10393 10394 10394 10395 10397 10399 10400 10400 10400 10401 10402 10402 10401 10401 10400 10400 10400 10400 10399 10398 10398 10397 10396 10395 10394 10393 10392 10391 10390 10388 10386 10384 10382 10380 10378 10376 10373 10371 10368 10366 10363 10360 10357 10355 10352 10350 10347 10345 10343 10341 10339 10338 10336
10327 10329 10331 10332 10334 10335 10337 10339 10340 10342 10343 10345 10347 10350 10353 10355 10357 10359 10361 10363 10365 10367 10369 10371 10373 10374 10376 10378 10379 10381 10382 10383 10384 10385 10386 10387 10388 10389 10391 10393 10394 10394 10394 10394 10394 10394 10393 10393 10393 10393 10393 10392 10392 10391 10390 10390 10389 10388 10387 10386 10386 10385 10383 10381 10379 10377 10376 10373 10371 10369 10366 10364 10361 10358 10355 10352 10350 10347 10345 10343 10341 10339 10337 10336 10334 10332 10331
10321 10322 10323 10325 10326 10328 10329 10331 10333 10334 10336 10337 10339 10342 10344 10346 10348 10351 10353 10355 10357 10359 10361 10363 10366 10367 10369 10370 10371 10373 10374 10376 10377 10378 10379 10380 10382 10383 10385 10386 10386 10386 10386 10387 10387 10387 10387 10386 10386 10386 10386 10385 10384 10384 10384 10383 10383 10382 10381 10380 10379 10378 10376 10374 10372 10371 10369 10367 10365 10362 10359 10356 10354 10351 10348 10345 10342 10340 10338 10337 10335 10333 10331 10329 10328 10326 10325
10314 10315 10316 10317 10318 10320 10321 10323 10324 10326 10328 10330 10331 10333 10336 10338 10340 10342 10344 10346 10349 10351 10354 10356 10358 10359 10361 10362 10364 10366 10367 10369 10370 10371 10372 10373 10374 10375 10376 10377 10378 10378 10379 10380 10380 10380 10380 10379 10379 10379 10379 10378 10377 10377 10377 10377 10376 10375 10374 10373 10372 10371 10369 10367 10365 10364 10362 10360 10358 10355 10352 10349 10346 10344 10341 10338 10336 10334 10332 10330 10328 10327 10325 10323 10322 10320 10319
10309 10309 10309 10310 10310 10311 10313 10314 10316 10318 10319 10321 10323 10325 10328 10330 10332 10334 10336 10338 10341 10343 10346 10348 10350 10351 10353 10354 10356 10358 10360 10361 10362 10363 10364 10365 10366 10368 10369 10370 10371 10371 10371 10372 10372 10372 10373 10372 10372 10372 10372 10371 10371 10371 10370 10370 10369 10368 10367 10366 10364 10363 10362 10360 10358 10356 10354 10352 10350 10348 10345 10342 10340 10337 10335 10332 10330 10328 10326 10325 10323 10321 10319 10318 10316 10315 10313
10303 10303 10303 10303 10304 10304 10305 10307 10308 10310 10311 10313 10315 10317 10320 10322 10324 10326 10327 10330 10332 10335 10337 10339 10341 10343 10344 10345 10348 10350 10351 10352 10354 10355 10356 10357 10359 10361 10362 10362 10363 10363 10363 10364 10365 10365 10366 10366 10365 10365 10365 10365 10365 10364 10364 10363 10362 10361 10360 10359 10357 10356 10355 10353 10351 10349 10347 10345 10343 10340 10338 10336 10333 10331 10329 10327 10325 10323 10321 10319 10318 10316 10314 10312 10310 10309 10307
10298 10298 10298 10297 10298 10298 10299 10299 10301 10302 10303 10305 10306 10308 10311 10313 10315 10317 10319 10321 10324 10326 10328 10330 10332 10334 10335 10337 10339 10340 10342 10343 10345 10347 10348 10350 10352 10353 10354 10354 10355 10356 10357 10357 10358 10358 10358 10358 10358 10358 10358 10357 10357 10357 10357 10356 10355 10354 10353 10352 10350 10349 10348 10346 10344 10342 10340 10338 10336 10333 10331 10329 10327 10325 10323 10321 10320 10318 10316 10314 10313 10311 10309 10307 10305 10303 10301
10293 10293 10292 10292 10292 10292 10293 10293 10294 10295 10296 10297 10298 10300 10302 10305 10307 10309 10310 10313 10315 10317 10319 10321 10323 10325 10327 10328 10330 10332 10334 10336 10338 10339 10341 10342 10344 10345 10346 10347 10348 10349 10350 10350 10350 10350 10350 10350 10350 10350 10350 10350 10349 10350 10349 10349 10348 10347 10346 10345 10343 10342 10340 10339 10337 10335 10333 10331 10329 10327 10325 10323 10321 10320 10318 10316 10315 10313 10311 10309 10307 10305 10303 10301 10300 10298 10296
10289 10289 10288 10288 10287 10287 10287 10288 10288 10289 10290 10291 10292 10293 10295 10297 10299 10301 10303 10304 10306 10308 10311 10313 10315 10317 10319 10320 10322 10324 10326 10328 10330 10331 10333 10334 10336 10337 10338 10339 10340 10341 10342 10342 10342 10342 10343 10343 10342 10342 10342 10342 10342 10342 10342 10342 10341 10340 10339 10338 10336 10335 10333 10332 10330 10328 10326 10324 10323 10321 10319 10317 10316 10315 10313 10311 10310 10308 10306 10304 10302 10300 10298 10296 10294 10292 10290
10287 10286 10285 10284 10284 10283 10283 10283 10284 10284 10285 10286 10287 10288 10289 10291 10292 10294 10295 10297 10299 10301 10303 10305 10307 10309 10310 10312 10314 10316 10318 10320 10322 10324 10325 10327 10328 10329 10330 10331 10332 10333 10334 10334 10335 10335 10336 10336 10335 10335 10335 10335 10335 10335 10334 10333 10333 10332 10331 10330 10328 10327 10326 10324 10323 10321 10320 10318 10317 10315 10314 10312 10311 10309 10308 10306 10305 10303 10301 10299 10297 10295 10293 10291 10289 10287 10285
10284 10284 10283 10282 10281 10281 10280 10280 10280 10280 10281 10281 10282 10283 10284 10285 10286 10287 10289 10290 10292 10293 10295 10297 10299 10300 10302 10304 10306 10308 10310 10312 10314 10316 10318 10319 10320 10321 10322 10324 10325 10326 10327 10328 10328 10328 10328 10328 10328 10328 10328 10328 10327 10327 10326 10325 10325 10324 10323 10322 10321 10319 10318 10317 10316 10315 10314 10312 10311 10310 10308 10307 10305 10304 10302 10300 10299 10297 10296 10294 10292 10290 10289 10287 10285 10283 10281
10282 10281 10281 10280 10280 10279 10279 10278 10278 10278 10278 10278 10279 10279 10280 10281 10281 10282 10283 10284 10286 10287 10288 10290 10292 10293 10295 10297 10299 10301 10303 10305 10307 10308 10310 10312 10313 10314 10315 10317 10317 10318 10319 10320 10321 10321 10321 10321 10321 10321 10321 10320 10320 10319 10319 10318 10317 10316 10315 10314 10313 10312 10311 10310 10309 10308 10307 10306 10305 10304 10302 10301 10299 10298 10296 10294 10293 10291 10290 10288 10287 10285 10284 10282 10280 10278 10276
10280 10280 10279 10279 10278 10278 10277 10277 10276 10276 10276 10276 10276 10276 10277 10277 10278 10279 10279 10280 10281 10282 10283 10284 10286 10287 10289 10291 10293 10295 10296 10298 10299 10301 10303 10304 10306 10307 10308 10309 10310 10311 10312 10313 10313 10313 10314 10314 10314 10314 10313 10313 10313 10312 10312 10311 10310 10309 10308 10308 10307 10306 10305 10304 10303 10302 10301 10300 10299 10298 10296 10295 10294 10292 10290 10289 10288 10286 10285 10283 10281 10280 10278 10277 10275 10273 10271
10279 10279 10278 10278 10277 10276 10276 10275 10275 10275 10275 10275 10274 10274 10274 10275 10275 10276 10276 10277 10277 10278 10279 10280 10281 10283 10284 10286 10287 10289 10290 10291 10293 10294 10296 10298 10299 10300 10301 10302 10303 10304 10305 10306 10306 10306 10307 10307 10307 10307 10306 10306 10306 10306 10305 10304 10304 10303 10302 10302 10301 10300 10299 10298 10297 10296 10295 10294 10293 10292 10291 10289 10288 10287 10285 10284 10283 10281 10280 10278 10276 10274 10273 10271 10269 10267 10265
10278 10278 10278 10277 10276 10276 10275 10275 10275 10274 10274 10274 10274 10273 10273 10273 10273 10274 10274 10274 10275 10275 10276 10277 10278 10279 10280 10281 10283 10284 10285 10286 10288 10289 10290 10292 10293 10294 10295 10296 10297 10298 10298 10299 10299 10300 10300 10300 10300 10300 10300 10300 10300 10300 10299 10299 10298 10298 10297 10296 10296 10295 10294 10293 10292 10291 10290 10289 10288 10287 10286 10284 10283 10282 10280 10279 10277 10276 10274 10273 10271 10269 10267 10265 10263 10261 10259